GFSSGP_250_rhum_222.txt.gz
RH
22 25 14 11 11 13 13 22 56 71 93 80 69 71 87 88 65 89 100 100 67 95 100 98 90 98 79 66 77 70 61 51 41 32 20 13 12 11 10 9 9 9 12 12 12 13 12 12 11
30 28 33 15 10 16 18 32 59 80 98 95 90 98 100 81 79 88 100 100 99 96 100 98 89 84 80 76 67 59 44 33 22 16 14 13 13 12 12 10 10 12 12 11 10 14 14 14 13
42 45 52 33 12 15 29 40 67 90 85 99 100 100 79 64 45 100 100 97 90 90 81 63 49 40 37 30 22 19 16 15 15 16 17 20 21 18 14 14 13 12 12 12 16 17 16 14 13
57 77 61 38 13 12 48 62 82 89 100 97 100 85 64 53 100 100 80 70 65 47 35 25 23 25 26 22 20 22 22 19 20 18 22 24 27 20 22 21 19 17 16 17 18 18 17 20 17
58 73 72 47 17 11 19 56 76 64 88 80 60 85 99 100 100 100 100 77 48 36 26 21 32 49 25 22 24 30 28 32 29 35 47 62 61 37 42 44 28 22 22 22 20 26 34 25 18
100 78 77 52 42 17 14 36 55 77 71 63 71 55 98 100 100 100 91 67 46 32 49 71 95 98 56 26 22 23 26 33 50 49 43 43 50 42 54 58 64 49 26 34 42 68 67 73 49
100 100 88 71 55 18 13 21 33 42 67 100 100 100 100 100 100 94 87 62 56 58 83 65 38 56 94 28 19 22 23 25 27 40 50 65 82 76 57 46 44 38 37 29 73 63 29 32 50
82 96 99 78 50 18 14 19 14 16 24 51 100 100 100 100 82 43 42 40 37 54 56 24 21 25 21 23 20 22 25 24 36 58 73 68 76 57 78 63 54 49 70 47 63 34 36 30 41
99 58 91 87 35 19 14 15 15 15 22 24 66 70 59 66 50 21 30 31 33 53 62 38 21 20 20 23 27 26 36 50 59 61 76 81 87 85 66 49 48 52 60 51 43 43 52 59 62
71 69 100 100 64 36 15 20 41 22 23 27 21 18 20 22 28 17 25 100 72 45 84 82 28 27 29 31 28 33 31 27 36 50 67 73 80 77 57 44 40 37 35 34 41 63 100 98 87
35 76 96 100 99 64 52 31 36 34 37 30 34 30 26 35 31 41 63 67 93 74 28 27 26 31 36 37 33 29 30 38 41 37 37 42 71 81 71 58 45 52 78 68 78 98 100 91 75
31 28 70 88 99 94 65 28 28 44 60 56 45 22 32 24 27 36 29 26 29 44 47 36 40 44 41 35 35 46 64 62 62 54 52 51 91 61 50 60 50 45 53 63 66 97 99 77 72
31 30 33 86 95 100 96 48 43 46 51 45 46 66 85 76 61 22 20 22 38 34 36 44 68 66 62 38 36 62 72 82 76 80 84 84 61 51 56 60 43 48 88 100 100 78 72 85 88
31 29 28 61 87 75 74 98 88 60 64 68 65 55 67 67 44 25 24 26 28 45 66 75 99 86 64 40 72 70 60 57 85 82 80 70 73 57 46 49 77 100 95 77 62 54 48 87 100
34 51 32 28 51 78 86 69 88 81 81 64 67 63 75 50 44 30 33 37 39 43 82 100 88 83 51 74 61 48 47 65 72 74 72 69 72 64 45 57 100 80 68 66 48 28 54 100 99
26 23 28 32 48 62 71 60 53 86 86 69 55 77 93 100 80 64 74 69 74 80 100 100 92 76 80 72 63 58 73 68 83 79 65 72 67 48 40 100 82 83 60 43 53 36 41 81 84
18 21 26 28 31 42 60 60 61 66 73 76 83 99 94 57 33 41 92 94 94 99 100 100 100 92 76 78 78 82 74 79 98 77 61 69 68 56 76 82 65 88 66 59 67 53 54 63 82
20 28 33 44 32 32 33 49 89 57 52 41 48 46 26 35 64 100 90 90 100 100 100 100 99 98 100 88 94 83 78 88 57 55 60 60 50 68 57 98 100 100 79 62 70 83 72 64 72
14 16 22 23 29 35 46 28 41 38 20 27 29 33 96 85 100 99 39 54 55 62 99 100 100 100 100 100 75 76 51 40 35 37 44 47 34 41 75 98 87 63 65 63 81 72 86 86 75
18 15 24 24 23 22 27 25 22 21 38 50 46 61 85 50 43 42 55 53 44 61 68 74 86 100 82 61 36 37 36 32 37 31 32 37 53 65 100 84 64 70 66 62 72 81 75 78 86
23 23 22 23 19 27 29 34 29 41 86 91 84 62 60 65 54 69 84 83 90 100 100 100 84 60 55 34 30 27 29 37 42 35 35 40 78 100 79 86 80 83 83 88 73 76 84 85 76
23 31 35 48 42 48 64 42 36 52 59 69 45 58 99 99 93 100 100 100 100 100 100 78 42 36 32 31 29 23 31 28 29 42 55 52 94 68 90 90 78 66 80 81 74 79 83 84 84
27 41 55 61 71 100 97 100 74 67 75 68 62 100 100 100 100 99 100 100 100 100 78 51 34 36 35 32 33 27 26 38 44 44 70 80 72 98 74 90 100 100 89 94 80 92 97 94 80
32 31 50 88 98 100 91 63 100 86 88 100 100 100 100 81 59 77 82 96 96 66 50 49 36 28 37 40 34 25 25 49 68 81 86 84 85 93 87 100 100 100 100 91 83 86 86 88 83
60 46 56 55 40 48 65 49 100 100 100 100 97 90 100 85 100 100 88 72 80 47 42 32 29 30 37 44 33 29 36 77 61 81 96 94 100 85 100 98 100 100 100 92 94 77 84 84 73
76 74 65 43 58 51 50 60 90 92 98 73 77 100 85 74 85 85 54 43 41 35 30 33 34 37 40 39 24 30 38 85 90 95 100 99 100 100 100 100 100 100 100 100 92 88 84 74 64
100 100 100 100 100 70 78 63 51 84 100 100 96 62 85 74 48 33 31 35 39 43 46 54 41 42 44 30 24 55 90 76 72 99 100 100 100 100 100 100 100 100 97 99 95 90 87 73 51
90 86 87 80 96 84 56 60 44 54 73 87 75 68 51 40 32 31 26 26 25 24 27 26 31 34 34 30 33 70 92 100 100 100 100 100 100 100 100 100 100 94 100 98 81 77 69 57 37
49 52 60 51 44 60 47 38 39 79 88 62 60 38 40 40 41 43 48 37 44 32 45 50 34 43 33 27 42 100 100 100 99 100 100 100 100 100 100 100 100 94 94 93 70 57 53 38 21
36 54 46 26 51 24 27 23 50 33 33 38 30 26 26 28 35 36 37 69 54 54 45 56 30 32 27 39 64 96 100 90 100 100 100 100 100 100 100 100 100 97 88 69 55 34 25 15 12

GFSSGP_250_rhum_228.txt.gz
RH
40 38 42 37 26 19 10 15 18 18 38 88 94 92 74 70 64 82 85 60 46 32 45 73 47 54 52 56 70 57 65 74 61 72 67 58 32 19 16 12 10 10 10 9 9 8 8 7 7
36 50 49 60 32 23 12 12 22 27 46 70 100 88 96 100 87 97 82 49 48 57 88 91 62 64 92 98 91 86 75 54 40 17 14 13 14 14 13 13 12 11 11 11 11 10 9 9 8
25 42 64 68 48 26 14 15 26 39 69 87 79 80 100 100 100 85 56 54 83 100 95 70 91 66 53 38 26 18 19 19 18 17 17 16 16 13 10 11 11 12 12 12 13 13 12 12 12
24 29 49 38 51 26 24 14 24 38 81 98 95 77 100 84 62 44 60 82 100 87 79 63 50 41 29 26 22 23 20 20 18 14 13 11 10 10 13 13 16 18 21 17 14 12 16 15 13
27 26 50 55 44 46 34 17 27 34 50 58 60 80 88 75 88 88 85 100 100 90 71 57 48 35 32 21 22 23 18 16 15 12 12 11 12 15 16 18 21 22 23 26 25 27 24 22 19
33 30 37 49 46 57 35 13 13 24 35 48 62 66 65 90 80 94 100 100 99 83 65 45 35 36 19 15 15 15 16 14 13 14 14 14 20 26 29 38 40 41 47 41 34 32 27 24 22
41 35 27 31 56 68 51 20 13 16 17 19 53 90 88 100 100 100 100 99 72 54 48 45 32 24 22 18 17 16 16 20 20 20 16 22 40 45 66 53 61 66 57 41 35 32 29 26 21
43 40 31 35 52 79 60 42 21 13 14 12 12 79 97 87 100 100 100 91 85 73 54 37 46 62 52 31 19 22 25 25 29 28 20 28 44 46 56 66 83 74 67 67 68 56 44 34 31
55 32 33 33 64 77 70 45 29 17 16 16 15 11 61 90 100 100 92 79 63 44 64 76 70 75 54 36 32 32 36 35 34 35 30 38 52 54 83 83 83 85 89 86 79 65 44 41 51
48 35 26 34 58 100 82 59 39 37 29 26 27 16 16 17 46 30 28 31 36 29 42 62 57 50 44 35 41 43 51 49 44 50 41 60 64 76 90 100 100 100 87 69 63 52 52 82 65
41 35 24 22 44 100 100 79 53 40 52 51 39 20 30 21 26 31 32 26 25 24 35 55 58 52 39 42 41 54 61 78 71 71 72 81 86 89 100 100 100 77 50 47 61 55 40 40 44
39 34 25 23 27 34 90 99 70 67 60 56 63 41 43 38 28 31 37 32 19 24 38 28 33 46 47 54 75 87 87 86 100 89 88 100 100 100 83 62 50 48 44 38 46 55 51 45 73
40 34 29 20 28 28 40 100 88 84 92 82 69 68 78 53 54 49 39 25 20 34 45 43 45 72 87 85 91 100 100 100 94 100 94 68 89 51 54 60 60 61 57 43 38 39 41 55 58
42 37 30 22 34 26 25 97 100 76 100 85 78 68 92 54 50 63 37 23 37 54 57 59 73 59 82 89 89 92 100 100 94 84 52 48 54 63 54 48 53 61 50 43 48 59 71 76 73
35 38 36 27 33 28 24 28 74 96 100 71 100 98 99 94 77 41 28 35 47 52 93 69 42 75 90 100 100 100 83 81 94 81 50 47 45 56 72 54 60 47 43 42 45 56 86 81 95
34 28 30 38 26 30 31 26 38 75 95 100 100 100 100 97 68 33 31 29 56 81 67 35 29 45 73 99 90 49 66 67 65 51 47 34 36 48 39 42 44 43 39 51 54 68 77 89 100
31 28 22 33 27 25 39 36 32 63 74 100 100 100 97 82 38 47 33 91 58 69 40 37 30 34 34 32 49 65 71 58 74 54 43 32 35 38 40 34 38 46 50 58 85 76 63 74 95
46 36 28 24 25 27 20 27 40 61 38 57 100 100 100 73 34 29 37 79 55 65 66 59 77 90 94 99 77 89 72 73 85 70 30 30 31 35 33 43 49 42 56 64 49 73 75 95 100
46 42 41 33 30 27 24 24 32 50 34 36 100 83 74 55 47 54 95 74 83 68 97 100 100 100 100 100 100 98 83 99 57 48 42 43 46 50 40 44 50 50 70 100 95 67 90 80 100
35 46 47 41 36 31 26 21 23 35 38 48 61 65 58 67 67 92 59 80 100 100 74 52 38 44 70 100 98 78 97 75 82 57 39 34 41 35 49 61 58 74 79 100 100 96 66 95 100
43 40 54 38 35 28 28 24 23 32 36 45 53 48 58 53 47 66 58 64 100 83 51 41 71 92 78 56 62 100 71 68 49 53 39 40 42 60 65 56 72 100 100 99 97 72 56 100 100
57 55 56 45 34 26 25 27 24 24 33 56 59 46 44 59 57 77 88 100 99 65 51 72 100 80 60 47 34 76 52 51 45 32 40 42 81 88 69 75 73 99 100 100 60 67 100 100 94
69 71 66 62 50 41 29 32 30 26 34 50 47 30 25 36 74 100 100 88 55 51 61 67 60 39 34 45 66 58 32 45 36 45 52 98 98 86 97 77 100 100 100 100 64 86 99 100 100
73 92 78 75 48 61 50 44 37 46 51 57 50 39 42 42 43 56 52 54 66 63 76 60 65 47 32 62 55 45 32 38 62 84 100 100 98 100 82 78 100 100 98 100 53 100 100 100 100
66 90 88 68 48 57 72 64 77 62 44 40 40 45 51 68 63 54 68 90 80 69 37 33 36 45 49 66 69 68 68 59 85 95 100 82 100 100 82 100 100 100 96 100 93 100 100 100 100
100 99 87 54 58 61 84 89 100 89 71 56 58 70 56 51 45 36 47 42 43 42 41 53 58 63 72 64 93 70 99 70 92 100 100 100 100 100 100 100 100 100 100 71 100 100 100 100 100
100 92 100 99 100 89 100 100 100 100 100 100 98 89 89 67 38 48 66 67 42 55 59 64 71 79 60 57 65 100 87 80 100 100 100 100 100 100 100 100 100 92 100 87 100 100 100 100 100
83 75 94 61 62 100 100 100 100 100 100 98 99 95 71 57 41 36 38 46 39 37 52 60 70 65 50 75 93 100 99 100 98 100 100 100 100 100 100 100 100 100 94 100 100 100 100 100 99
63 62 67 62 52 55 78 97 95 99 100 100 100 100 74 35 38 45 59 66 81 63 59 71 99 96 90 99 100 78 100 100 92 100 100 100 100 100 100 98 97 100 85 100 100 100 100 99 97
69 65 61 46 40 47 41 44 47 61 66 94 100 90 82 62 38 36 53 63 66 57 70 86 100 100 92 100 100 98 100 99 100 100 100 100 100 100 100 100 100 86 100 100 100 100 100 91 89

GFSSGP_250_rhum_231.txt.gz
RH
25 22 28 40 51 34 23 10 12 18 21 63 100 94 63 84 70 98 100 60 57 46 37 38 50 70 54 83 95 74 79 73 63 60 73 58 22 15 12 12 11 11 11 11 11 10 9 8 8
29 26 22 49 65 58 37 23 11 19 32 35 61 97 95 68 50 48 48 66 61 48 49 57 86 96 90 88 81 76 48 32 22 19 15 14 12 11 10 12 14 13 13 12 10 11 10 12 12
33 31 27 34 48 61 35 28 14 14 31 70 60 53 67 98 97 100 100 82 47 58 90 88 90 76 92 55 26 22 20 17 17 16 13 13 13 15 14 16 15 15 14 11 10 10 10 9 11
36 36 33 28 55 61 52 27 16 14 39 89 94 56 95 100 93 51 41 36 36 71 100 81 72 60 41 29 20 20 22 18 17 15 14 14 12 18 20 20 23 20 10 15 17 16 13 11 9
32 39 35 29 29 53 57 36 15 11 18 35 40 50 57 63 67 69 53 61 80 100 100 78 58 46 35 21 18 15 17 16 16 15 15 14 16 24 21 23 30 28 24 32 30 29 17 14 14
32 38 38 23 20 31 56 52 14 11 13 22 37 39 44 48 48 45 98 100 100 100 71 67 46 36 28 15 15 14 15 17 18 21 22 22 20 26 28 29 36 39 43 45 41 35 30 26 25
28 45 44 22 18 24 43 52 22 12 13 13 12 36 37 57 93 99 100 100 99 78 70 49 36 31 33 23 28 19 18 20 18 25 28 29 31 34 28 33 49 66 78 62 64 50 42 40 36
31 40 48 24 18 20 46 67 46 18 17 14 14 73 83 90 80 100 100 93 88 75 70 55 55 61 60 27 21 23 25 25 25 39 36 33 37 42 45 51 67 100 100 96 71 50 38 36 44
33 50 44 28 19 17 30 78 62 43 27 28 25 21 83 100 100 100 92 90 92 57 47 66 70 75 71 42 30 34 38 41 40 56 59 56 55 64 67 91 100 86 71 55 47 42 43 34 35
28 47 46 31 22 18 25 63 85 48 41 39 42 32 20 22 29 68 63 30 46 55 38 33 40 38 36 42 47 44 40 48 59 55 75 78 90 83 100 100 77 63 54 49 44 48 46 41 41
31 34 50 39 26 22 36 57 66 85 52 52 62 60 29 37 38 22 27 30 28 28 25 32 36 34 46 49 46 45 55 72 73 62 89 99 82 70 65 62 62 45 50 63 70 62 41 42 42
34 35 48 48 30 22 27 24 45 100 72 72 78 70 52 33 54 31 26 24 22 32 26 39 27 30 30 29 40 53 42 55 95 100 100 73 71 58 55 47 53 68 61 46 47 51 43 37 43
41 41 43 50 36 26 26 23 19 82 91 97 98 82 66 65 65 36 58 47 34 40 40 31 34 26 43 35 37 41 46 83 100 72 71 81 69 59 42 52 85 84 76 55 47 47 38 34 35
41 48 44 50 40 31 28 23 19 100 99 81 100 96 78 75 93 52 50 64 39 52 46 35 65 60 35 32 32 64 90 100 56 52 48 64 66 55 44 59 68 96 74 62 48 42 40 42 56
38 51 49 49 42 32 28 26 26 21 72 90 74 100 100 93 100 97 48 40 43 40 44 85 84 45 22 29 40 78 84 32 36 67 74 80 65 37 32 54 58 43 44 46 44 55 47 66 68
28 40 56 69 45 36 25 22 32 30 26 77 64 88 100 100 100 100 70 34 33 85 84 56 35 28 32 33 66 75 54 67 78 89 76 89 75 62 41 37 38 33 38 54 55 50 86 73 100
32 39 50 70 55 43 30 23 27 32 30 40 61 60 88 100 86 78 41 27 40 76 59 34 35 38 65 71 92 94 100 98 100 82 90 72 42 55 58 57 41 56 52 59 82 82 84 98 88
33 42 47 49 77 57 42 26 25 25 31 30 33 33 60 100 100 82 28 34 34 50 52 41 48 99 98 88 78 73 44 36 86 78 75 59 61 43 62 58 52 60 64 81 88 100 100 100 100
33 44 53 43 71 67 56 28 34 26 31 20 36 32 67 88 35 30 39 38 31 39 98 79 100 84 47 39 31 31 46 67 82 73 76 66 56 68 70 73 80 95 90 100 90 100 100 100 100
36 45 61 54 61 62 52 44 33 33 27 22 28 26 26 28 23 24 29 33 27 28 87 100 87 56 42 31 43 53 59 58 63 58 47 41 69 75 77 92 94 100 100 99 81 100 100 92 100
36 48 60 68 62 60 54 44 36 37 36 30 30 28 23 23 26 29 29 28 27 76 99 100 78 40 36 60 50 55 58 38 51 82 83 80 63 49 66 69 90 91 100 100 100 100 100 100 100
40 47 57 84 77 78 68 54 45 40 45 39 33 32 45 56 48 32 32 36 98 100 100 78 47 41 61 57 49 35 46 58 76 66 100 78 81 61 80 80 96 100 100 100 100 100 100 100 100
39 47 69 90 94 99 83 74 57 45 46 47 43 53 69 66 58 45 33 53 57 77 57 48 46 37 40 36 39 32 53 72 89 77 68 47 57 85 76 59 99 100 100 100 100 100 100 100 91
50 47 68 72 85 100 69 79 85 47 40 53 54 46 43 58 65 43 40 41 45 50 51 67 72 44 30 42 55 70 80 86 100 69 67 68 68 59 89 78 96 100 100 100 100 100 100 100 100
62 52 56 72 74 99 95 73 100 84 40 55 57 52 63 56 45 39 37 47 50 46 46 41 45 44 43 50 65 68 95 98 74 67 85 65 57 94 100 99 100 100 100 100 100 100 100 100 100
74 69 69 59 99 99 97 93 100 88 69 73 69 71 82 74 68 77 96 88 56 51 47 45 40 36 46 60 77 92 99 100 100 100 100 86 99 65 64 99 100 100 100 100 100 100 100 100 100
75 90 88 68 85 92 100 100 100 95 99 94 90 83 100 100 99 82 66 45 41 50 45 64 56 51 53 62 69 78 93 100 100 100 100 100 100 72 92 100 100 100 100 100 100 100 100 100 100
100 70 100 100 89 76 94 76 88 100 100 100 100 100 99 95 99 100 82 62 44 61 80 94 86 79 95 92 79 56 76 93 100 100 100 90 93 68 100 100 100 100 100 100 100 100 99 100 100
99 90 76 100 100 64 66 60 50 100 100 98 100 100 87 91 95 80 91 54 54 53 38 36 24 23 33 45 57 73 69 69 88 100 100 89 72 88 100 100 100 100 100 100 100 100 100 100 100
99 100 95 84 75 74 67 50 47 54 78 98 100 99 99 76 66 83 70 64 43 34 24 19 25 37 46 59 92 92 99 100 100 100 100 100 93 96 100 100 100 100 100 100 100 100 100 100 100

GFSSGP_250_rhum_234.txt.gz
RH
22 31 30 21 30 58 38 30 26 82 49 20 31 23 74 100 100 100 100 95 85 70 45 38 37 53 98 76 51 69 76 71 46 62 63 45 18 11 12 12 13 12 11 11 12 10 9 9 9
18 31 39 24 20 59 80 49 29 100 81 22 33 46 43 66 100 94 93 100 91 48 40 40 66 62 41 93 54 40 28 19 18 18 13 12 14 14 14 13 13 12 11 10 11 11 10 10 9
19 32 44 27 19 85 98 78 36 20 44 28 56 37 17 44 61 61 74 86 100 54 44 62 95 95 62 52 36 21 19 17 15 15 14 13 15 13 13 16 15 14 14 12 11 12 11 9 8
15 31 40 34 18 19 36 50 33 100 100 30 24 100 94 60 100 95 73 41 47 37 41 96 87 72 54 37 16 14 13 16 17 16 17 17 18 17 21 22 19 16 14 14 16 13 9 8 10
14 27 36 39 19 16 26 46 53 67 100 14 9 93 87 44 78 48 38 60 51 59 87 100 75 63 45 23 14 13 15 17 18 22 25 28 23 20 22 25 22 20 18 23 20 12 11 13 11
16 22 32 39 26 16 21 47 60 90 15 12 10 10 18 34 36 35 34 99 100 100 100 85 58 36 29 29 21 19 27 20 25 24 30 28 27 24 26 25 30 32 45 55 23 19 25 30 22
15 18 24 38 29 18 14 26 42 40 14 17 14 97 74 26 40 90 93 58 84 97 85 66 50 46 51 56 56 42 41 32 31 31 35 36 32 26 29 45 38 44 60 35 42 39 26 20 19
16 18 22 30 33 22 16 18 47 39 27 22 16 19 11 37 50 28 40 78 75 72 59 45 43 50 57 54 51 34 28 36 33 36 39 54 50 51 60 80 64 60 51 44 35 33 31 28 30
16 21 23 30 41 27 18 14 39 73 53 42 32 26 17 21 41 98 100 61 53 64 32 37 41 46 51 36 33 36 33 30 34 38 56 39 48 70 100 67 59 50 38 36 43 38 36 36 32
16 19 25 35 36 33 22 17 17 33 95 72 55 40 35 23 36 28 40 53 41 22 32 41 34 38 41 38 44 39 34 32 31 37 43 52 63 99 82 65 44 37 50 69 70 66 50 41 40
18 22 29 42 46 39 28 21 16 21 27 100 82 72 43 29 26 38 35 24 21 24 28 52 40 37 36 36 33 34 38 44 42 52 77 92 100 100 100 71 35 39 54 70 79 45 37 29 32
20 22 30 45 51 40 33 27 20 19 21 69 93 91 86 51 32 39 41 30 32 36 42 47 41 34 33 29 32 33 31 29 30 43 100 38 56 60 78 46 36 42 57 62 40 41 40 45 58
22 22 24 44 58 53 41 31 23 18 26 81 52 81 100 94 65 57 60 43 70 69 55 46 34 29 29 26 17 15 19 18 59 87 27 17 22 43 63 51 65 83 75 58 32 32 48 46 55
26 24 25 31 57 67 48 35 26 20 22 91 98 63 100 100 98 78 83 62 65 73 56 40 30 29 73 32 18 18 18 33 66 24 24 36 47 62 72 81 95 55 65 56 55 63 69 60 79
32 27 27 37 50 61 54 39 29 24 27 21 19 96 66 91 100 97 100 90 60 42 33 31 32 44 28 19 20 30 46 45 73 54 60 69 86 72 61 69 89 86 79 77 85 90 100 76 100
32 27 24 34 60 47 58 54 44 33 26 25 18 16 37 88 98 100 100 100 70 37 28 29 58 31 22 20 54 87 73 100 100 100 100 100 100 70 71 67 75 74 74 78 84 91 99 100 98
34 31 26 26 62 56 65 55 39 45 33 31 23 18 15 31 49 91 100 83 46 25 22 24 32 32 26 61 92 43 42 32 34 45 79 100 77 86 52 48 62 64 72 93 100 100 100 94 100
38 36 28 24 32 88 64 49 43 51 41 33 28 21 19 15 20 51 90 53 60 24 26 26 28 64 54 99 74 46 32 46 51 56 71 65 56 63 69 64 69 88 86 43 42 66 100 100 100
45 38 30 25 33 55 60 66 55 47 47 42 34 29 22 18 15 23 43 34 22 22 26 24 30 95 100 100 70 34 44 56 55 58 62 55 49 66 73 51 51 54 52 57 74 84 58 81 98
51 43 34 29 29 49 63 73 62 54 52 48 46 33 32 30 20 18 27 21 20 24 30 26 54 93 100 82 51 30 77 66 47 80 100 84 89 100 81 74 67 79 46 75 75 72 100 99 95
64 48 39 30 25 45 62 76 75 72 63 53 56 36 39 38 36 31 36 33 34 33 32 70 61 100 80 55 39 48 45 40 45 63 73 70 100 100 100 78 74 66 60 80 51 100 100 98 100
67 53 51 38 29 34 52 65 67 73 74 72 63 48 47 53 54 38 60 58 53 38 79 95 85 75 62 55 28 40 41 32 41 86 100 100 100 100 100 90 93 93 38 40 72 85 61 86 96
73 59 52 43 34 36 52 50 92 72 68 87 79 64 56 65 70 58 53 70 64 50 82 48 56 34 70 59 44 36 42 46 38 69 95 100 100 100 100 100 100 99 33 41 50 100 100 100 100
88 67 65 46 38 37 42 39 100 93 69 74 78 60 78 80 81 62 58 48 50 58 73 70 58 52 45 50 38 35 39 48 38 65 100 95 100 94 93 85 100 91 81 44 71 99 100 100 99
86 84 62 52 47 35 32 51 84 50 57 39 63 48 74 81 76 78 80 71 84 95 89 85 74 51 43 46 51 73 74 62 75 65 41 76 75 47 51 85 90 86 75 44 81 97 100 100 100
93 99 86 71 73 56 44 83 100 86 56 71 54 57 99 82 94 90 86 85 99 100 100 75 75 68 69 72 74 96 93 30 31 48 68 63 64 95 100 100 100 90 48 99 100 100 100 100 100
75 91 95 80 70 65 90 92 97 87 76 83 63 65 86 100 100 100 100 100 100 88 64 63 72 95 98 81 53 34 31 32 69 68 90 85 89 93 47 82 100 100 70 100 71 75 100 100 95
80 83 96 90 69 65 85 100 100 100 86 93 100 89 83 88 87 89 100 100 100 100 100 100 86 72 70 35 29 30 41 49 66 62 90 80 56 73 100 100 100 75 86 77 72 90 100 95 100
93 84 94 87 78 71 61 92 100 100 100 94 86 82 84 100 100 88 75 60 46 49 67 76 73 74 72 56 24 45 78 96 68 54 96 100 100 100 100 91 98 96 56 93 76 100 69 100 100
100 100 84 73 91 76 65 64 100 100 100 100 78 84 66 50 48 57 73 88 90 78 84 79 73 68 49 46 80 94 84 71 74 98 100 100 68 75 100 100 100 72 49 84 78 96 100 100 100